| time (UTC) | temp F | wind direction | speed MPH | gust MPH | rain 1hr in | rain 24hr in | rain mn in | humidity % | barometer mb |
| 20260508115013 | 60 | 309 | 1.0 | 8.0 | 0.00 | 0.00 | 0.00 | 53 | 1018.0 |
| 20260508114012 | 61 | 28 | 3.0 | 9.0 | 0.00 | 0.00 | 0.00 | 52 | 1018.0 |
| 20260508113012 | 61 | 350 | 3.0 | 7.0 | 0.00 | 0.00 | 0.00 | 52 | 1018.0 |
| 20260508112012 | 62 | 45 | 2.0 | 7.0 | 0.00 | 0.00 | 0.00 | 54 | 1018.2 |
| 20260508111012 | 61 | 330 | 3.0 | 7.0 | 0.00 | 0.00 | 0.00 | 57 | 1018.2 |
| 20260508104012 | 60 | 69 | 2.0 | 5.0 | 0.00 | 0.00 | 0.00 | 56 | 1018.5 |
| 20260508103013 | 60 | 138 | 2.0 | 6.0 | 0.00 | 0.00 | 0.00 | 61 | 1018.3 |
| 20260508102012 | 58 | 271 | 1.0 | 4.0 | 0.00 | 0.00 | 0.00 | 64 | 1018.4 |
| 20260508101012 | 57 | 327 | 1.0 | 4.0 | 0.00 | 0.00 | 0.00 | 64 | 1018.5 |
| 20260508100012 | 57 | 327 | 1.0 | 4.0 | 0.00 | 0.00 | 0.00 | 63 | 1018.5 |
| 20260508095012 | 56 | 325 | 1.0 | 4.0 | 0.00 | 0.00 | 0.00 | 67 | 1018.5 |
| 20260508094012 | 57 | 330 | 1.0 | 5.0 | 0.00 | 0.00 | 0.00 | 64 | 1018.6 |
| 20260508093012 | 58 | 328 | 1.0 | 5.0 | 0.00 | 0.00 | 0.00 | 64 | 1018.6 |
| 20260508092012 | 57 | 302 | 1.0 | 5.0 | 0.00 | 0.00 | 0.00 | 65 | 1018.7 |
| 20260508091011 | 57 | 100 | 2.0 | 6.0 | 0.00 | 0.00 | 0.00 | 65 | 1018.7 |
| 20260508090011 | 57 | 34 | 1.0 | 8.0 | 0.00 | 0.00 | 0.00 | 70 | 1018.7 |
| 20260508085012 | 56 | 327 | 2.0 | 7.0 | 0.00 | 0.00 | 0.00 | 69 | 1018.6 |
| 20260508084011 | 55 | 64 | 3.0 | 8.0 | 0.00 | 0.00 | 0.00 | 68 | 1018.6 |
| 20260508083011 | 54 | 86 | 1.0 | 5.0 | 0.00 | 0.00 | 0.00 | 72 | 1018.7 |
| 20260508082012 | 53 | 53 | 2.0 | 5.0 | 0.00 | 0.00 | 0.00 | 72 | 1018.8 |
| 20260508081012 | 53 | 32 | 2.0 | 4.0 | 0.00 | 0.00 | 0.00 | 73 | 1018.9 |
| 20260508074012 | 52 | 338 | 4.0 | 5.0 | 0.00 | 0.00 | 0.00 | 78 | 1019.0 |
| 20260508073012 | 52 | 346 | 1.0 | 3.0 | 0.00 | 0.00 | 0.00 | 78 | 1019.0 |
| 20260508071011 | 51 | 342 | 0.0 | 4.0 | 0.00 | 0.00 | 0.00 | 78 | 1018.8 |
| 20260508070011 | 51 | 334 | 0.0 | 3.0 | 0.00 | 0.00 | 0.00 | 79 | 1018.8 |
| 20260508065011 | 50 | 332 | 0.0 | 2.0 | 0.00 | 0.00 | 0.00 | 81 | 1018.6 |
| 20260508064011 | 50 | 332 | 0.0 | 2.0 | 0.00 | 0.00 | 0.00 | 82 | 1018.6 |
| 20260508063012 | 49 | 331 | 0.0 | 2.0 | 0.00 | 0.00 | 0.00 | 83 | 1018.4 |
| 20260508062011 | 49 | 331 | 1.0 | 3.0 | 0.00 | 0.00 | 0.00 | 84 | 1018.3 |
| 20260508061011 | 49 | 332 | 1.0 | 5.0 | 0.00 | 0.00 | 0.00 | 84 | 1018.1 |
| 20260508060011 | 48 | 297 | 1.0 | 5.0 | 0.00 | 0.00 | 0.00 | 85 | 1018.0 |
| 20260508055011 | 48 | 280 | 1.0 | 4.0 | 0.00 | 0.00 | 0.00 | 85 | 1018.0 |
| 20260508054011 | 48 | 274 | 0.0 | 3.0 | 0.00 | 0.00 | 0.00 | 86 | 1017.9 |
| 20260508053011 | 48 | 273 | 1.0 | 4.0 | 0.00 | 0.00 | 0.00 | 89 | 1017.8 |
| 20260508052011 | 48 | 292 | 2.0 | 4.0 | 0.00 | 0.00 | 0.00 | 90 | 1017.8 |
| 20260508051011 | 48 | 274 | 1.0 | 3.0 | 0.00 | 0.00 | 0.00 | 91 | 1017.8 |
| 20260508050011 | 47 | 274 | 0.0 | 1.0 | 0.00 | 0.00 | 0.00 | 91 | 1017.6 |
| 20260508045011 | 47 | 274 | 1.0 | 3.0 | 0.00 | 0.00 | 0.00 | 91 | 1017.6 |
| 20260508044011 | 47 | 281 | 2.0 | 4.0 | 0.00 | 0.00 | 0.00 | 91 | 1017.5 |
| 20260508043011 | 47 | 285 | 1.0 | 4.0 | 0.00 | 0.00 | 0.00 | 91 | 1017.5 |
| 20260508042011 | 47 | 286 | 0.0 | 2.0 | 0.00 | 0.00 | 0.00 | 91 | 1017.5 |
| 20260508041011 | 47 | 286 | 1.0 | 4.0 | 0.00 | 0.00 | 0.00 | 91 | 1017.5 |
| 20260508040011 | 47 | 286 | 1.0 | 3.0 | 0.00 | 0.00 | 0.00 | 91 | 1017.3 |
| 20260508035011 | 47 | 286 | 2.0 | 4.0 | 0.00 | 0.00 | 0.00 | 91 | 1017.3 |
| 20260508034010 | 47 | 269 | 1.0 | 4.0 | 0.00 | 0.00 | 0.00 | 91 | 1017.2 |
| 20260508033010 | 47 | 254 | 1.0 | 5.0 | 0.00 | 0.00 | 0.00 | 91 | 1017.2 |
| 20260508032010 | 47 | 257 | 0.0 | 2.0 | 0.00 | 0.00 | 0.00 | 91 | 1017.1 |
| 20260508031011 | 47 | 257 | 0.0 | 1.0 | 0.00 | 0.00 | 0.00 | 92 | 1017.1 |
| 20260508030010 | 47 | 257 | 0.0 | 2.0 | 0.00 | 0.00 | 0.00 | 92 | 1017.2 |
| 20260508025010 | 47 | 257 | 0.0 | 2.0 | 0.00 | 0.00 | 0.00 | 91 | 1017.2 |
| 20260508024010 | 46 | 257 | 0.0 | 2.0 | 0.00 | 0.00 | 0.00 | 90 | 1017.2 |
| 20260508023011 | 46 | 257 | 0.0 | 3.0 | 0.00 | 0.00 | 0.00 | 90 | 1017.2 |
| 20260508022010 | 46 | 257 | 0.0 | 1.0 | 0.00 | 0.00 | 0.00 | 88 | 1017.2 |
| 20260508021011 | 46 | 257 | 0.0 | 0.0 | 0.00 | 0.00 | 0.00 | 83 | 1017.2 |
| 20260508020010 | 46 | 257 | 0.0 | 0.0 | 0.00 | 0.00 | 0.00 | 83 | 1017.2 |
| 20260508015010 | 47 | 257 | 0.0 | 0.0 | 0.00 | 0.00 | 0.00 | 83 | 1017.1 |
| 20260508014010 | 47 | 257 | 0.0 | 2.0 | 0.00 | 0.00 | 0.00 | 83 | 1017.2 |
| 20260508013010 | 47 | 257 | 1.0 | 3.0 | 0.00 | 0.00 | 0.00 | 83 | 1017.2 |
| 20260508012010 | 48 | 257 | 0.0 | 2.0 | 0.00 | 0.00 | 0.00 | 83 | 1017.3 |
| 20260508011010 | 48 | 257 | 0.0 | 4.0 | 0.00 | 0.00 | 0.00 | 83 | 1017.2 |
| 20260508010010 | 48 | 256 | 0.0 | 0.0 | 0.00 | 0.00 | 0.00 | 83 | 1017.3 |
| 20260508005010 | 48 | 256 | 0.0 | 2.0 | 0.00 | 0.00 | 0.00 | 83 | 1017.4 |
| 20260508004010 | 48 | 256 | 1.0 | 3.0 | 0.00 | 0.00 | 0.00 | 83 | 1017.4 |
| 20260508003010 | 48 | 255 | 1.0 | 3.0 | 0.00 | 0.00 | 0.00 | 82 | 1017.5 |
| 20260508002010 | 49 | 262 | 0.0 | 0.0 | 0.00 | 0.00 | 0.00 | 82 | 1017.5 |
| 20260508001011 | 49 | 262 | 0.0 | 0.0 | 0.00 | 0.00 | 0.00 | 82 | 1017.5 |
| 20260508000010 | 49 | 262 | 1.0 | 3.0 | 0.00 | 0.00 | 0.00 | 82 | 1017.5 |
| 20260507235010 | 49 | 257 | 1.0 | 3.0 | 0.00 | 0.00 | 0.00 | 83 | 1017.6 |
| 20260507234010 | 49 | 257 | 0.0 | 0.0 | 0.00 | 0.00 | 0.00 | 83 | 1017.7 |
| 20260507233010 | 49 | 257 | 0.0 | 1.0 | 0.00 | 0.00 | 0.00 | 83 | 1017.6 |
| 20260507232009 | 49 | 257 | 1.0 | 2.0 | 0.00 | 0.00 | 0.00 | 83 | 1017.7 |
| 20260507231010 | 49 | 257 | 0.0 | 0.0 | 0.00 | 0.00 | 0.00 | 83 | 1017.6 |
| 20260507230010 | 49 | 257 | 0.0 | 0.0 | 0.00 | 0.00 | 0.00 | 83 | 1017.6 |
| 20260507225010 | 49 | 257 | 0.0 | 1.0 | 0.00 | 0.00 | 0.00 | 83 | 1017.6 |
| 20260507223010 | 49 | 257 | 0.0 | 1.0 | 0.00 | 0.00 | 0.00 | 82 | 1017.5 |
| 20260507222009 | 49 | 257 | 0.0 | 0.0 | 0.00 | 0.00 | 0.00 | 82 | 1017.4 |
| 20260507221010 | 49 | 257 | 0.0 | 2.0 | 0.00 | 0.00 | 0.00 | 82 | 1017.5 |
| 20260507220009 | 49 | 257 | 0.0 | 0.0 | 0.00 | 0.09 | 0.09 | 81 | 1017.3 |
| 20260507215017 | 49 | 257 | 0.0 | 0.0 | 0.00 | 0.09 | 0.09 | 81 | 1017.3 |
| 20260507214009 | 49 | 257 | 0.0 | 3.0 | 0.00 | 0.09 | 0.09 | 80 | 1017.3 |
| 20260507213009 | 49 | 257 | 2.0 | 3.0 | 0.00 | 0.09 | 0.09 | 80 | 1017.2 |
| 20260507212009 | 49 | 258 | 0.0 | 2.0 | 0.00 | 0.09 | 0.09 | 78 | 1017.1 |
| 20260507211009 | 49 | 258 | 0.0 | 3.0 | 0.00 | 0.09 | 0.09 | 79 | 1017.1 |
| 20260507210009 | 49 | 258 | 1.0 | 3.0 | 0.00 | 0.09 | 0.09 | 78 | 1017.2 |
| 20260507205008 | 50 | 258 | 1.0 | 3.0 | 0.00 | 0.09 | 0.09 | 78 | 1017.1 |
| 20260507204008 | 50 | 258 | 1.0 | 3.0 | 0.00 | 0.09 | 0.09 | 77 | 1017.1 |
| 20260507203008 | 50 | 258 | 1.0 | 3.0 | 0.00 | 0.09 | 0.09 | 77 | 1016.9 |
| 20260507202013 | 50 | 258 | 1.0 | 3.0 | 0.00 | 0.09 | 0.09 | 77 | 1016.9 |
| 20260507201013 | 50 | 258 | 1.0 | 3.0 | 0.00 | 0.09 | 0.09 | 77 | 1016.9 |
| 20260507200013 | 50 | 258 | 1.0 | 4.0 | 0.00 | 0.09 | 0.09 | 77 | 1016.8 |
| 20260507195013 | 50 | 261 | 1.0 | 3.0 | 0.00 | 0.09 | 0.09 | 77 | 1016.8 |
| 20260507194013 | 50 | 261 | 0.0 | 3.0 | 0.00 | 0.09 | 0.09 | 77 | 1016.7 |
| 20260507193013 | 51 | 261 | 1.0 | 3.0 | 0.00 | 0.09 | 0.09 | 77 | 1016.7 |
| 20260507192013 | 51 | 261 | 1.0 | 3.0 | 0.00 | 0.09 | 0.09 | 76 | 1016.7 |
| 20260507191013 | 51 | 261 | 1.0 | 6.0 | 0.00 | 0.09 | 0.09 | 76 | 1016.5 |
| 20260507190013 | 51 | 255 | 1.0 | 3.0 | 0.00 | 0.09 | 0.09 | 76 | 1016.3 |
| 20260507185013 | 51 | 255 | 1.0 | 7.0 | 0.00 | 0.09 | 0.09 | 76 | 1016.3 |
| 20260507184013 | 51 | 257 | 2.0 | 4.0 | 0.00 | 0.09 | 0.09 | 75 | 1016.3 |
| 20260507183013 | 51 | 251 | 1.0 | 4.0 | 0.00 | 0.09 | 0.09 | 76 | 1016.2 |
| 20260507182013 | 51 | 250 | 1.0 | 4.0 | 0.00 | 0.09 | 0.09 | 75 | 1016.0 |
| 20260507181013 | 51 | 250 | 2.0 | 4.0 | 0.00 | 0.09 | 0.09 | 75 | 1015.8 |
| 20260507180012 | 51 | 250 | 3.0 | 7.0 | 0.00 | 0.09 | 0.09 | 74 | 1015.9 |
| 20260507175013 | 52 | 253 | 3.0 | 7.0 | 0.00 | 0.09 | 0.09 | 74 | 1015.9 |
| 20260507174013 | 52 | 288 | 3.0 | 7.0 | 0.00 | 0.09 | 0.09 | 73 | 1015.9 |
| 20260507173013 | 52 | 249 | 4.0 | 9.0 | 0.00 | 0.09 | 0.09 | 73 | 1015.7 |
| 20260507172013 | 52 | 251 | 5.0 | 9.0 | 0.00 | 0.09 | 0.09 | 72 | 1015.7 |
| 20260507171012 | 53 | 272 | 4.0 | 10.0 | 0.00 | 0.09 | 0.09 | 72 | 1015.6 |
| 20260507170012 | 53 | 266 | 3.0 | 9.0 | 0.00 | 0.09 | 0.09 | 72 | 1015.6 |
| 20260507165012 | 53 | 265 | 3.0 | 7.0 | 0.00 | 0.09 | 0.09 | 71 | 1015.6 |
| 20260507164013 | 53 | 241 | 4.0 | 11.0 | 0.00 | 0.09 | 0.09 | 72 | 1015.6 |
| 20260507163012 | 53 | 252 | 4.0 | 9.0 | 0.00 | 0.09 | 0.09 | 71 | 1015.5 |
| 20260507162012 | 53 | 280 | 4.0 | 9.0 | 0.00 | 0.09 | 0.09 | 70 | 1015.5 |
| 20260507161012 | 53 | 268 | 4.0 | 9.0 | 0.00 | 0.09 | 0.09 | 71 | 1015.3 |
| 20260507160012 | 53 | 243 | 5.0 | 11.0 | 0.00 | 0.09 | 0.09 | 69 | 1015.3 |
| 20260507155012 | 54 | 263 | 5.0 | 13.0 | 0.00 | 0.09 | 0.09 | 69 | 1015.2 |
| 20260507154012 | 54 | 240 | 3.0 | 10.0 | 0.00 | 0.09 | 0.09 | 71 | 1015.1 |
| 20260507153012 | 54 | 236 | 4.0 | 10.0 | 0.00 | 0.09 | 0.09 | 71 | 1015.0 |
| 20260507152012 | 54 | 271 | 3.0 | 10.0 | 0.00 | 0.09 | 0.09 | 70 | 1015.0 |
| 20260507151012 | 53 | 242 | 2.0 | 8.0 | 0.00 | 0.09 | 0.09 | 73 | 1015.1 |
| 20260507150012 | 53 | 276 | 4.0 | 11.0 | 0.00 | 0.09 | 0.09 | 71 | 1015.0 |
| 20260507145012 | 53 | 267 | 5.0 | 9.0 | 0.00 | 0.09 | 0.09 | 72 | 1015.1 |
| 20260507144012 | 53 | 223 | 4.0 | 10.0 | 0.00 | 0.09 | 0.09 | 72 | 1015.0 |
| 20260507143012 | 54 | 261 | 6.0 | 13.0 | 0.00 | 0.09 | 0.09 | 70 | 1015.1 |
| 20260507142012 | 54 | 242 | 4.0 | 12.0 | 0.00 | 0.09 | 0.09 | 72 | 1015.0 |
| 20260507141012 | 54 | 225 | 3.0 | 12.0 | 0.00 | 0.09 | 0.09 | 73 | 1015.1 |
| 20260507140011 | 53 | 256 | 7.0 | 11.0 | 0.00 | 0.09 | 0.09 | 71 | 1015.0 |
| 20260507135012 | 54 | 245 | 5.0 | 13.0 | 0.00 | 0.09 | 0.09 | 74 | 1015.0 |
| 20260507134012 | 53 | 232 | 3.0 | 8.0 | 0.00 | 0.09 | 0.09 | 77 | 1015.0 |
| 20260507133011 | 52 | 213 | 4.0 | 9.0 | 0.00 | 0.09 | 0.09 | 80 | 1015.0 |
| 20260507132011 | 51 | 250 | 4.0 | 9.0 | 0.00 | 0.09 | 0.09 | 79 | 1015.0 |
| 20260507131011 | 51 | 264 | 6.0 | 12.0 | 0.00 | 0.09 | 0.09 | 77 | 1015.1 |
| 20260507130011 | 51 | 259 | 5.0 | 12.0 | 0.00 | 0.09 | 0.09 | 76 | 1014.9 |
| 20260507125012 | 51 | 233 | 5.0 | 12.0 | 0.00 | 0.09 | 0.09 | 75 | 1014.9 |
| 20260507124011 | 52 | 238 | 7.0 | 15.0 | 0.00 | 0.09 | 0.09 | 73 | 1014.7 |
| 20260507123011 | 52 | 266 | 4.0 | 10.0 | 0.00 | 0.09 | 0.09 | 74 | 1014.6 |
| 20260507122012 | 53 | 250 | 8.0 | 16.0 | 0.00 | 0.09 | 0.09 | 73 | 1014.5 |
| 20260507121011 | 54 | 267 | 5.0 | 13.0 | 0.00 | 0.09 | 0.09 | 72 | 1014.4 |
| 20260507120011 | 53 | 269 | 6.0 | 13.0 | 0.00 | 0.09 | 0.09 | 73 | 1014.3 |